Regional Weather Roundup
Issued by NWS

Home | Current Version | Previous Version | Text Only | Print | Product List | Glossary Off
Versions: 1 2 3 4 5 6 7 8 9 10 11 12 13 14 15 16 17 18 19 20 21 22 23 24 25 26 27 28 29 30 31 32 33 34 35 36 37 38 39 40 41 42 43 44 45 46 47 48 49 50

526
ASUS45 KBOU 220907
RWRCO

WEATHER ROUNDUP FOR COLORADO
NATIONAL WEATHER SERVICE DENVER/BOULDER CO
200 AM MST SUN JAN 22 2017

NOTE: "FAIR" INDICATES FEW OR NO CLOUDS BELOW 12000 FEET WITH NO
SIGNIFICANT WEATHER AND/OR OBSTRUCTIONS TO VISIBILITY.

COZ001>005-013-030-031-221000-
...NORTHWEST COLORADO...

CITY           SKY/WX    TMP DP  RH WIND       PRES   REMARKS
CRAIG          CLOUDY    25  18  74 W6        29.92R WCI  18
HAYDEN         MOCLDY    25  19  80 W9        29.91R WCI  15
MEEKER         CLOUDY    25  23  92 CALM      29.92R
MOUNT WERNER   NOT AVBL
STEAMBOAT SPGS CLOUDY    23  21  91 W6        29.89R WCI  16
WALDEN           N/A     18  12  79 S5        29.83R WCI  11
$$

COZ006>008-011-221000-
...WEST CENTRAL VALLEYS...

CITY           SKY/WX    TMP DP  RH WIND       PRES   REMARKS
GRAND JUNCTION FAIR      29  27  92 CALM      29.96R
MONTROSE       CLOUDY    30  27  88 S7        29.98R WCI  23
EAGLE          NOT AVBL
RIFLE          CLOUDY    32  28  85 CALM      29.93R
DELTA          CLOUDY    35  25  65 SW8       29.96R WCI  29
NUCLA          FAIR      23  21  93 E8        30.01R WCI  14
$$

COZ017>023-064>068-221000-
...SOUTHWEST COLORADO...

CITY           SKY/WX    TMP DP  RH WIND       PRES   REMARKS
DURANGO        FAIR      17  12  80 CALM      29.90R
CORTEZ         FAIR      19  18  95 NE5       29.99R WCI  12
PAGOSA SPRINGS CLOUDY    24  24  96 CALM      29.89R
TELLURIDE      CLOUDY    20  13  73 NW7       29.95R WCI  11
WOLF CREEK PAS CLOUDY     9   9 100 SW9       29.87R WCI  -5
$$

COZ009-010-012-014-032>034-037-058>063-221000-
...CENTRAL COLORADO...

CITY           SKY/WX    TMP DP  RH WIND       PRES   REMARKS
ASPEN          LGT SNOW  23  21  92 CALM      29.88R FOG
BUENA VISTA    FAIR      20  10  65 W13       29.80R WCI   7
COPPER MTN     NOT AVBL
BERTHOUD PASS  NOT AVBL
COTTONWOOD PAS FAIR      23   9  54 W15G29    29.77R WCI  10
GUNNISON       FAIR      13  11  92 CALM      29.89R
KREMMLING      FLURRIES  21  18  86 CALM      29.87R
LEADVILLE      LGT SNOW  14  10  84 NW8       29.79R FOG     WCI   3
MONARCH PASS   CLOUDY     9   5  85 NW8G16    29.86R WCI  -4
SALIDA         FAIR      22  17  80 NW6       29.88R WCI  14
SUNLIGHT       CLOUDY   N/A N/A N/A MISG      29.89R
WILKERSON PASS FAIR      12   5  73 NW9G18    29.76R WCI   0
$$

COZ069>075-221000-
...SAN LUIS VALLEY/SANGRE DE CRISTO MOUNTAINS...

CITY           SKY/WX    TMP DP  RH WIND       PRES   REMARKS
ALAMOSA        FAIR       2  -1  88 S5        29.83R WCI  -8
LA VETA PASS   CLOUDY    18  16  93 NE23G29   29.75R WCI   0
SAGUACHE       FAIR      25  16  68 N13G22    29.83R WCI  13
$$

COZ035-036-038>040-221000-
...NORTHERN COLORADO FRONT RANGE...

CITY           SKY/WX    TMP DP  RH WIND       PRES   REMARKS
DENVER INTL AP FAIR      28  23  81 W7        29.75R WCI  21
DMNS CITY PARK   N/A     29  22  73 E9        29.77R WCI  21
AURORA         MOCLDY    27  25  93 SW6       29.76R WCI  20
FRONT RANGE AP FAIR      30  28  93 W9        29.76R WCI  22
ERIE MUNI ARPT FAIR      26  24  91 CALM      29.76R
BOULDER MUN AP FAIR      32  23  69 N3        29.75R
CENTENNIAL     FAIR      26  19  74 SW6       29.75R WCI  19
BROOMFIELD     FAIR      32  18  55 W15       29.76R WCI  22
FORT COLLINS   FAIR      28  25  86 CALM      29.76R
LONGMONT       FAIR      30  24  78 W5        29.77R WCI  25
$$

COZ041-046-047-076>085-087-088-221000-
...PIKES PEAK/PALMER DIVIDE AND SOUTHERN FOOTHILLS...

CITY           SKY/WX    TMP DP  RH WIND       PRES   REMARKS
COLO. SPRINGS  FAIR      30  19  63 NW7       29.74R WCI  23
A. F. ACADEMY  FAIR      24  18  78 N8        29.73R WCI  14
SCHRIEVER AFB  NOT AVBL
ELLICOTT       FAIR     N/A N/A N/A NW7       29.72R
FALCON         FAIR      29  20  69 N12       29.74R WCI  20
FORT CARSON    NOT AVBL
LIMON          FAIR      24  22  91 NW3       29.73R
MONUMENT HILL  FAIR      23  19  86 NW7       29.76R WCI  15
TRINIDAD       FAIR      26  20  77 W7        29.75R WCI  18
$$

COZ042>045-048>051-090-091-221000-
...NORTHEAST COLORADO...

CITY           SKY/WX    TMP DP  RH WIND       PRES   REMARKS
GREELEY ARPT   MOCLDY    28  26  92 W5        29.76R WCI  23
AKRON          CLOUDY    30  25  81 W13       29.72R WCI  20
BURLINGTON     FAIR      29  25  85 W12       29.71R WCI  19
WRAY           NOT AVBL
STERLING       CLOUDY    36  28  75 NW9       29.72R
HOLYOKE        FAIR      34  28  80 W6        29.70R WCI  29
FORT MORGAN    CLOUDY    34  26  71 NW9       29.74R WCI  26
$$

COZ086-089-092>099-221000-
...SOUTHEAST COLORADO...

CITY           SKY/WX    TMP DP  RH WIND       PRES   REMARKS
PUEBLO         FAIR      27  24  89 W6        29.75R WCI  20
LA JUNTA       CLOUDY    31  27  85 NW9       29.73R WCI  23
LAMAR          FAIR      29  25  85 SW5       29.70R WCI  24
SPRINGFIELD      N/A     30  28  92 NW14      29.69R WCI  19
$$




USA.gov is the U.S. government's official web portal to all federal, state and local government web resources and services.